Regional Weather Roundup
Issued by NWS

Home | Current Version | Previous Version | Text Only | Print | Product List | Glossary Off
Versions: 1 2 3 4 5 6 7 8 9 10 11 12 13 14 15 16 17 18 19 20 21 22 23 24 25 26 27 28 29 30 31 32 33 34 35 36 37 38 39 40 41 42 43 44 45 46 47 48 49 50

713
ASUS43 KLSX 290310
RWRMO

WEATHER SUMMARY FOR MISSOURI
NATIONAL WEATHER SERVICE SPRINGFIELD MO
1000 PM CDT WED JUN 28 2017

NOTE: "FAIR" INDICATES FEW OR NO CLOUDS BELOW 12,000 FEET WITH NO
       SIGNIFICANT WEATHER AND/OR OBSTRUCTIONS TO VISIBILITY.
       CURRENT SKY AND/OR WEATHER CONDITIONS ARE NOT AVAILABLE FOR
       CHILLICOTHE AND FARMINGTON.

MOZ001>031-035>038-043-044-053-054-290400-
...NORTHERN AND WESTERN MISSOURI...

CITY           SKY/WX    TMP DP  RH WIND       PRES   REMARKS
KANSAS CTY INT MOCLDY    82  69  64 S21G29    29.74R
KANSAS C DTWN  CLEAR     84  69  60 S18G29    29.75R
LEE`S SUMMIT   CLEAR     82  68  62 S21G33    29.78R
ST JOSEPH      CLEAR     84  70  62 S21G30    29.69R
CHILLICOTHE      N/A     72  66  81 N15G22    29.82R
KIRKSVILLE     TSTM      69  64  84 NE15G51   29.86R VSB 3/4

$$
MOZ066>068-077>081-088>096-101>105-290400-
...SOUTHWEST MISSOURI...

CITY           SKY/WX    TMP DP  RH WIND       PRES   REMARKS
SPRINGFIELD    CLEAR     76  65  68 S13       29.89R
JOPLIN         CLEAR     78  68  71 S7        29.86R
BRANSON        CLEAR     72  64  78 SE6       29.94R

$$
MOZ032>034-039>042-045>050-055>058-069>072-290400-
...CENTRAL MISSOURI...

CITY           SKY/WX    TMP DP  RH WIND       PRES   REMARKS
COLUMBIA       CLOUDY    79  65  62 S13       29.84R
JEFFERSON CITY CLOUDY    80  65  59 SE7       29.84S
ROLLA          CLOUDY    75  64  68 S13       29.88F
SEDALIA        CLOUDY    79  69  71 S10       29.83R
WHITEMAN AFB   PTCLDY    78  69  73 S16       29.80R
WARRENSBURG    CLEAR     79  66  65 S10       29.80R
OSAGE BEACH    CLOUDY    78  64  61 S9        29.88R

$$
MOZ051-052-059>065-290400-
...EAST CENTRAL MISSOURI...

CITY           SKY/WX    TMP DP  RH WIND       PRES   REMARKS
ST LOUIS INTL  CLOUDY    83  63  50 S15       29.89S
SPIRIT OF STL  CLOUDY    79  64  60 S5        29.87R
ST CHARLES     MOCLDY    80  63  55 S14       29.86S

$$
MOZ072>076-082>087-097>100-106>115-290400-
...SOUTH CENTRAL AND SOUTHEAST MISSOURI...

CITY           SKY/WX    TMP DP  RH WIND       PRES   REMARKS
CAPE GIRARDEAU CLEAR     74  63  68 S6        29.95R
FARMINGTON     PTCLDY    74  66  76 S7        29.96R
POPLAR BLUFF   CLEAR     77  67  71 S5        29.95R
WEST PLAINS    CLEAR     74  64  71 S5        29.96R

$$




USA.gov is the U.S. government's official web portal to all federal, state and local government web resources and services.